GFSNIL_925_temp_000.txt.gz
Temp
13 12 12 10 10 10 10 9 9 9 9 8 7 7 6 6 5 5 5 5 5 4
12 11 11 10 10 10 9 9 8 7 6 6 6 5 4 4 4 4 3 3 3 3
11 11 10 10 10 9 8 7 7 6 5 5 4 4 3 2 2 3 3 3 2 2
11 10 10 10 8 7 6 6 5 5 4 4 3 3 3 3 2 2 2 2 2 2
10 10 9 8 7 6 6 5 5 5 4 4 4 3 3 2 2 2 2 2 2 2
10 9 8 7 7 6 6 5 5 5 4 4 4 4 4 3 3 2 1 2 2 2
9 8 7 7 6 6 5 5 5 5 4 4 4 3 2 1 1 0 0 -0 -0 0
9 8 7 6 6 5 5 5 4 4 4 3 3 1 0 -1 -1 -2 -2 -2 -1 -1
9 8 6 6 5 5 5 4 4 4 3 3 2 1 -1 -2 -3 -3 -3 -3 -3 -2
5 4 4 5 5 5 5 4 4 3 3 2 1 -0 -2 -3 -4 -4 -4 -4 -3 -3
5 5 5 5 4 4 4 4 4 3 2 1 0 -1 -2 -3 -4 -5 -5 -5 -5 -4
4 6 5 4 3 4 4 4 3 2 1 -0 -1 -2 -3 -5 -5 -5 -5 -6 -5 -5
5 5 5 4 4 4 4 3 2 0 -1 -1 -2 -2 -4 -5 -6 -6 -6 -6 -6 -5
2 4 4 4 4 4 3 3 1 -0 -1 -1 -2 -3 -5 -6 -6 -7 -7 -7 -7 -6

GFSNIL_925_temp_003.txt.gz
Temp
12 11 11 10 10 10 10 10 8 8 7 7 6 5 5 4 4 4 4 4 4 4
11 10 9 9 10 10 8 8 7 7 6 5 5 5 4 4 3 3 2 2 2 2
10 9 9 9 8 7 7 7 6 6 5 5 4 4 3 3 3 3 2 2 1 2
11 10 9 9 8 7 7 6 6 5 5 4 4 4 3 3 3 2 2 2 1 2
10 10 9 8 7 7 6 6 5 5 4 4 4 4 3 2 2 1 1 1 1 1
9 9 8 7 7 6 5 5 5 5 4 4 4 3 3 2 1 0 0 -0 -1 -1
9 8 7 6 5 5 5 5 5 4 4 4 3 3 2 1 0 -1 -1 -2 -2 -2
9 7 5 3 4 3 4 5 4 4 4 4 3 2 1 -0 -1 -2 -2 -3 -4 -4
7 5 4 3 3 4 5 5 4 4 4 3 2 1 -0 -2 -2 -2 -4 -4 -4 -5
5 4 3 2 4 4 4 4 4 4 3 2 1 -0 -1 -2 -3 -4 -4 -5 -5 -5
5 3 3 3 4 4 4 4 4 3 2 1 -0 -1 -2 -3 -4 -5 -5 -5 -6 -6
4 4 3 2 4 4 4 4 3 2 1 -0 -1 -2 -3 -4 -5 -6 -6 -6 -6 -6
3 3 3 2 4 4 4 3 1 0 -1 -1 -2 -4 -4 -5 -6 -7 -7 -7 -7 -7
3 3 3 3 3 3 3 1 0 -1 -2 -2 -4 -5 -6 -7 -7 -8 -8 -8 -8 -8

GFSNIL_925_temp_006.txt.gz
Temp
11 10 10 10 9 8 8 8 7 7 6 6 5 5 4 4 3 3 3 2 2 2
12 11 11 10 9 8 8 7 7 6 6 5 5 4 4 3 3 3 3 2 2 1
11 10 10 10 9 8 8 7 6 6 5 5 4 4 4 3 3 3 2 2 1 1
11 10 9 8 7 7 6 5 6 5 5 4 4 4 3 3 3 2 1 1 0 0
10 9 9 7 7 6 6 5 5 5 4 4 4 3 3 3 2 1 1 -0 -1 -1
8 8 8 7 6 5 5 3 3 4 4 4 4 4 3 1 0 -0 -1 -2 -2 -2
7 7 6 5 4 4 1 2 3 4 4 4 3 3 1 1 -0 -1 -2 -2 -3 -3
6 6 6 5 4 3 4 3 4 4 4 3 3 2 0 -1 -1 -2 -2 -3 -4 -4
5 5 4 4 3 3 3 3 3 4 3 3 2 1 -0 -1 -2 -2 -3 -4 -5 -5
5 4 4 3 2 2 3 2 3 3 2 2 -0 -1 -2 -2 -3 -4 -5 -5 -6 -6
4 4 3 3 2 1 2 3 3 2 1 -0 -1 -2 -3 -4 -5 -5 -6 -6 -6 -7
3 3 3 3 3 2 2 3 2 0 -1 -2 -2 -4 -5 -6 -7 -7 -7 -7 -7 -7
3 3 3 3 2 2 2 2 0 -1 -2 -3 -4 -5 -6 -6 -7 -8 -8 -8 -8 -8
3 2 3 3 3 2 2 0 -1 -2 -3 -4 -5 -6 -7 -7 -8 -8 -8 -9 -9 -8

GFSNIL_925_temp_009.txt.gz
Temp
12 12 12 11 11 11 10 8 7 6 6 5 5 5 4 4 3 3 3 2 2 2
11 10 10 9 9 9 8 7 6 5 3 3 4 4 4 3 3 3 2 2 2 1
9 9 9 9 9 8 7 6 5 4 3 4 4 4 4 3 3 3 3 2 1 0
9 9 9 8 8 7 6 5 5 4 3 3 4 4 4 3 3 3 2 0 -0 -1
8 7 7 7 5 5 4 4 3 3 3 3 4 4 3 3 2 1 0 -1 -1 -1
7 6 6 6 6 5 5 5 5 4 3 3 4 3 3 2 1 -0 -1 -2 -2 -3
6 6 5 5 5 5 5 4 3 3 3 3 3 3 2 1 -0 -1 -1 -2 -3 -4
6 5 5 4 4 4 3 2 2 2 3 3 2 2 1 -0 -1 -2 -2 -3 -4 -5
5 4 4 3 3 2 2 2 2 3 3 2 2 0 -0 -1 -2 -3 -4 -5 -5 -6
4 4 3 3 3 2 2 2 2 2 1 1 -1 -1 -2 -3 -4 -5 -6 -6 -7 -7
4 4 3 2 2 2 2 2 1 1 -0 -1 -1 -2 -3 -5 -6 -7 -7 -7 -7 -8
3 3 2 2 2 2 2 1 0 -1 -1 -1 -3 -4 -5 -6 -7 -7 -8 -8 -8 -8
3 2 2 2 2 2 1 1 -0 -1 -2 -3 -4 -5 -6 -7 -7 -8 -8 -8 -8 -8
2 1 2 1 2 2 2 0 -1 -1 -3 -4 -5 -6 -7 -7 -8 -8 -8 -9 -9 -8

GFSNIL_925_temp_012.txt.gz
Temp
10 9 9 9 9 9 9 9 7 6 5 4 4 3 3 3 4 3 3 3 2 2
10 9 9 9 9 8 8 8 6 5 4 3 3 3 3 3 3 3 3 3 2 1
9 9 8 8 8 8 7 5 5 4 3 2 2 3 3 3 3 3 3 2 1 0
8 8 7 7 7 6 6 5 5 4 4 3 3 3 2 3 3 2 2 1 -0 -1
7 7 6 6 5 5 5 5 5 4 3 3 3 3 2 3 2 2 1 -0 -1 -1
7 6 6 5 5 4 4 4 3 2 2 2 3 3 3 2 2 0 -0 -1 -2 -2
6 5 5 4 4 3 3 2 3 2 2 3 3 2 2 1 0 -0 -1 -2 -3 -4
6 5 4 4 3 3 3 3 2 2 2 2 2 2 1 -0 -1 -2 -3 -4 -4 -5
5 4 4 4 3 3 2 2 2 1 1 1 2 -0 -1 -1 -2 -4 -5 -6 -7 -7
5 4 4 3 2 2 2 2 1 1 1 0 -1 -1 -2 -3 -4 -5 -6 -7 -7 -8
4 3 3 2 2 2 1 1 1 -0 -1 -1 -1 -2 -3 -4 -5 -6 -7 -8 -8 -8
3 3 2 2 2 2 1 1 0 -1 -1 -1 -3 -4 -5 -6 -7 -7 -8 -8 -8 -8
3 2 2 1 1 1 1 1 0 -1 -2 -3 -3 -4 -5 -7 -7 -8 -8 -8 -8 -8
2 2 1 1 1 1 0 -1 -1 -2 -2 -3 -4 -5 -6 -7 -7 -8 -8 -8 -9 -9

GFSNIL_925_temp_015.txt.gz
Temp
10 10 9 9 8 7 7 7 7 6 5 4 4 3 2 3 3 2 2 2 2 2
9 9 8 8 8 7 7 7 6 5 3 4 4 4 3 2 2 2 2 2 1 1
9 8 8 7 7 6 6 5 4 4 3 4 4 3 2 2 2 1 2 2 1 1
8 8 7 6 6 5 5 5 4 3 3 3 3 3 1 2 3 2 1 1 -0 -0
7 7 6 5 5 4 4 4 3 3 2 2 2 1 2 2 3 1 1 0 -1 -1
7 6 5 4 4 4 3 2 2 2 2 1 1 1 2 2 2 0 -0 -1 -2 -2
6 6 5 4 4 3 2 2 2 2 1 1 1 1 2 2 0 -1 -2 -3 -3 -3
6 5 5 4 3 2 2 2 2 2 1 1 1 1 0 -0 -1 -2 -3 -3 -4 -5
5 5 4 4 3 2 2 2 2 1 1 1 0 -1 -1 -1 -2 -3 -4 -4 -5 -5
5 5 4 3 2 2 1 1 1 0 0 -1 -2 -2 -2 -2 -4 -4 -5 -5 -6 -6
4 4 3 3 2 1 1 0 0 -0 -1 -2 -2 -2 -3 -3 -5 -5 -6 -6 -7 -7
3 3 2 1 1 1 0 0 -0 -0 -2 -2 -3 -3 -4 -5 -6 -6 -6 -7 -7 -7
2 1 1 1 0 0 -0 -1 -1 -2 -2 -2 -3 -4 -4 -5 -6 -7 -7 -7 -7 -8
1 0 0 -0 0 -0 -1 -1 -2 -2 -3 -3 -3 -4 -5 -6 -6 -7 -7 -7 -7 -7

GFSNIL_925_temp_018.txt.gz
Temp
11 11 11 10 9 9 9 8 8 7 7 7 6 5 4 5 5 5 4 4 4 4
10 10 9 9 8 8 8 7 7 6 6 6 5 5 4 5 5 5 4 4 4 4
9 9 8 8 8 7 7 7 6 6 6 6 5 5 5 5 4 4 4 4 4 4
9 8 8 8 7 7 6 6 6 5 5 5 4 4 4 4 3 4 4 4 3 3
9 9 8 7 7 6 5 5 5 4 4 5 5 4 4 3 4 4 4 3 3 3
9 8 7 7 6 6 5 5 4 5 5 4 3 2 3 3 3 3 3 2 2 1
8 8 7 6 6 5 5 4 4 4 4 3 3 3 3 3 2 2 2 1 0 -0
8 7 7 6 5 5 4 4 4 4 4 3 2 1 1 2 2 1 1 0 -0 -1
7 7 6 6 5 4 4 4 4 4 3 3 2 -0 -1 -1 1 0 0 -0 -1 -2
7 6 6 5 5 4 4 3 3 3 2 2 1 -2 -1 -1 -1 -1 -1 -2 -2 -3
6 5 5 5 5 4 4 3 3 3 2 2 -0 -2 -2 -2 -2 -2 -2 -3 -3 -3
5 5 5 5 4 4 3 3 3 2 2 1 -0 -3 -3 -3 -3 -3 -3 -4 -4 -5
4 4 4 3 3 3 3 2 2 2 1 -0 -1 -3 -3 -4 -3 -4 -4 -4 -4 -5
4 3 3 3 3 2 2 2 1 -0 -1 -1 -2 -2 -4 -4 -5 -4 -4 -4 -4 -5

GFSNIL_925_temp_021.txt.gz
Temp
11 10 11 11 11 11 10 10 9 9 8 8 9 8 6 6 5 5 5 6 5 5
10 11 11 10 10 10 9 9 9 8 8 8 8 7 6 5 5 6 6 5 5 5
11 11 11 10 10 9 8 8 8 7 7 7 7 7 6 6 6 5 5 4 5 5
11 11 10 10 9 8 8 7 7 7 7 6 7 7 6 6 5 5 4 4 5 4
11 11 10 10 9 8 7 7 7 6 6 7 7 6 6 5 4 4 4 5 4 3
11 11 10 9 9 8 7 7 6 6 6 6 5 4 5 5 5 4 4 3 3 3
11 11 10 9 8 8 7 6 6 6 6 6 5 5 4 3 3 3 3 2 2 2
11 10 9 9 8 7 6 6 6 6 6 5 4 3 3 3 3 3 2 2 2 1
10 10 9 8 7 7 7 6 6 5 5 5 4 1 1 0 1 2 1 1 1 0
10 9 8 8 7 7 7 6 5 5 4 4 3 1 0 -0 -0 1 1 0 -0 -0
9 8 8 7 7 7 6 6 5 5 4 3 2 1 -0 -1 -1 0 -0 -1 -1 -1
8 7 7 7 6 6 5 5 5 5 4 3 1 0 -1 -2 -1 -1 -1 -1 -2 -2
6 6 6 6 5 5 5 5 4 4 3 3 1 -0 -1 -2 -2 -2 -2 -2 -2 -3
6 6 5 5 4 4 4 4 3 2 2 1 0 -1 -2 -3 -4 -3 -3 -3 -3 -3

GFSNIL_925_temp_024.txt.gz
Temp
12 12 12 12 11 11 10 10 9 9 8 8 8 8 8 7 7 6 5 5 5 5
12 12 12 11 10 10 9 9 9 8 8 8 7 7 7 7 6 5 5 5 4 4
11 11 11 10 10 9 9 8 8 8 7 7 7 7 7 7 6 6 5 4 4 3
11 11 11 10 10 9 9 8 8 7 7 7 7 7 6 6 6 5 4 4 4 2
11 11 11 11 10 9 8 8 7 7 7 7 7 6 5 5 5 5 4 4 3 3
11 11 11 11 10 9 8 8 7 6 6 6 6 6 5 4 4 4 4 3 3 2
12 11 11 10 9 9 8 7 7 6 6 6 6 6 5 4 4 3 3 2 2 2
12 11 11 10 9 8 8 7 6 6 6 6 5 4 3 3 2 2 2 2 2 2
11 11 10 9 9 8 7 7 7 6 6 5 4 3 2 2 1 1 1 1 1 1
11 9 9 9 8 7 7 7 6 6 5 5 3 2 2 1 1 0 1 0 -0 -1
9 9 8 7 6 7 7 6 6 5 5 4 3 2 1 1 0 -0 -0 -0 -1 -1
8 7 6 6 6 6 6 5 5 5 5 4 3 2 1 -0 -1 -1 -1 -1 -2 -2
6 5 4 5 5 5 5 5 5 4 4 3 2 1 -0 -1 -1 -2 -2 -2 -2 -2
4 4 4 4 4 4 4 4 4 4 3 2 2 1 -0 -1 -1 -3 -3 -3 -3 -3

GFSNIL_925_temp_027.txt.gz
Temp
14 14 14 13 12 11 11 10 9 9 8 8 7 7 7 7 7 7 6 5 5 5
14 13 12 11 11 10 10 9 9 8 8 7 7 7 7 7 7 6 5 5 5 4
12 12 11 11 10 10 9 9 8 8 7 7 7 6 6 6 6 5 5 4 4 4
11 11 11 10 10 10 9 8 8 7 7 7 6 6 6 6 5 5 4 4 4 3
11 11 11 10 10 9 9 8 8 7 7 6 6 6 6 6 4 4 4 3 3 2
11 11 11 10 10 9 9 8 7 7 6 6 6 6 5 5 4 4 3 3 2 2
11 11 11 11 10 9 9 8 7 7 6 6 6 5 4 4 3 3 2 2 2 1
11 11 10 10 9 9 8 8 7 7 6 6 5 5 4 3 3 2 2 1 1 1
11 11 9 9 8 8 8 7 7 7 6 5 5 4 4 3 2 2 1 1 0 -0
10 9 8 8 7 7 7 6 6 6 6 5 5 4 3 2 2 1 0 -0 -0 -1
8 7 6 5 6 6 4 4 5 5 5 5 4 4 3 2 1 0 -0 -1 -1 -1
5 4 4 5 5 3 4 4 4 5 5 4 3 3 1 1 -0 -0 -1 -1 -2 -2
4 3 4 3 3 3 3 4 4 4 4 4 3 2 1 0 -0 -1 -1 -2 -2 -3
3 2 2 3 3 3 3 3 3 3 3 3 3 2 1 0 -0 -1 -2 -3 -3 -4

GFSNIL_925_temp_030.txt.gz
Temp
15 14 14 13 12 11 10 9 9 8 8 7 7 7 7 6 6 6 5 5 5 5
14 13 13 12 11 10 10 9 8 8 8 7 7 7 6 6 6 6 5 5 5 4
13 13 12 11 11 10 9 9 9 8 7 7 7 6 6 6 6 5 5 4 4 4
13 12 11 11 10 10 9 9 8 8 7 7 6 6 6 6 5 5 4 4 4 3
13 12 11 11 10 10 10 9 8 8 7 7 6 6 6 5 5 5 4 3 3 3
12 11 11 11 10 10 9 8 8 7 7 7 6 6 6 5 4 4 3 2 2 2
12 11 11 11 10 10 9 8 8 7 7 7 6 6 5 5 4 3 3 2 2 1
12 11 11 10 9 8 8 7 7 7 7 6 6 5 5 4 3 3 2 1 1 1
11 10 10 8 7 7 7 6 6 7 6 6 6 5 4 4 3 2 2 1 1 -0
9 8 6 6 6 5 4 5 6 5 5 5 5 4 4 3 3 2 1 0 -0 -1
6 5 4 4 3 3 4 4 4 4 4 4 4 4 3 2 2 1 0 -0 -1 -1
4 4 4 4 2 3 3 3 4 4 4 4 4 4 3 2 2 1 -0 -1 -1 -2
4 4 2 1 2 2 3 3 3 3 3 2 3 3 3 2 1 0 -1 -1 -2 -2
3 1 1 2 3 3 3 2 2 2 1 2 2 2 2 2 1 0 -1 -1 -2 -2

GFSNIL_925_temp_033.txt.gz
Temp
15 14 14 13 12 11 10 10 9 9 8 8 7 7 7 6 6 6 6 5 5 5
15 13 13 12 11 10 10 9 9 8 8 8 7 7 6 6 6 6 5 5 5 4
14 13 13 12 11 11 10 9 8 8 8 8 7 7 6 6 6 5 5 5 4 4
13 13 13 12 11 11 10 9 9 9 9 7 7 6 6 6 5 5 5 4 4 3
13 13 12 12 11 10 10 9 9 9 8 7 7 6 6 6 5 5 4 4 3 3
12 12 12 11 11 10 10 9 8 8 8 7 7 7 6 6 5 5 4 3 3 2
12 12 11 11 10 10 9 8 8 8 7 7 7 6 6 5 5 4 3 3 2 2
12 11 11 10 10 9 8 7 7 6 6 6 6 5 5 5 4 4 3 2 2 1
10 9 9 8 7 6 5 5 5 4 5 5 5 5 5 5 4 3 2 2 1 1
8 7 6 5 5 5 4 3 3 3 4 4 5 5 5 4 3 3 2 2 1 0
5 4 4 5 4 3 2 2 3 3 3 4 4 4 4 3 2 2 2 1 0 -0
5 4 4 3 3 3 3 3 3 3 3 3 3 3 3 3 2 2 1 0 -0 -1
3 3 3 3 2 1 2 3 2 2 2 2 1 2 2 2 2 1 0 -0 -1 -1
4 3 2 2 2 2 2 2 2 2 2 1 1 1 1 1 1 1 1 -0 -1 -1

GFSNIL_925_temp_039.txt.gz
Temp
13 13 13 14 13 12 11 10 10 9 9 9 8 8 8 7 7 7 6 6 5 5
13 12 13 13 12 11 11 11 9 9 9 8 9 8 7 7 7 6 6 6 5 5
12 12 13 13 12 10 10 10 9 8 8 9 8 7 7 7 7 7 6 5 5 4
13 12 12 11 11 10 10 9 8 8 8 8 7 7 7 7 6 6 6 5 5 4
13 13 12 11 10 9 9 8 8 8 8 7 7 7 7 6 4 5 5 5 4 4
10 9 8 9 9 8 7 7 8 9 8 7 7 7 6 5 4 4 5 4 4 4
8 8 8 7 7 7 7 8 9 8 7 6 5 6 5 4 3 4 4 5 4 4
8 7 7 8 8 8 8 8 7 6 5 4 4 5 3 3 3 3 3 4 4 4
8 8 8 8 7 7 6 5 4 4 4 4 3 2 3 3 3 3 3 3 3 3
7 7 6 5 5 4 3 3 3 3 3 3 2 2 2 2 2 2 2 2 2 2
4 3 3 3 2 2 3 4 3 3 3 2 2 2 2 2 2 2 2 2 1 1
3 3 3 3 3 4 3 3 3 3 2 1 1 2 2 2 1 1 1 1 1 0
4 4 4 4 3 3 2 2 1 1 1 2 1 2 2 1 0 -0 -0 -0 0 1
3 3 2 2 2 1 1 1 1 2 2 2 2 1 1 1 0 -0 -0 -0 -0 -1

GFSNIL_925_temp_042.txt.gz
Temp
14 14 13 14 14 13 11 10 10 10 9 10 9 8 9 8 8 7 8 8 8 9
14 13 13 13 13 11 11 10 10 9 9 8 8 9 8 7 6 7 8 8 7 7
14 13 13 13 12 11 10 10 9 9 8 7 8 8 7 7 7 8 7 7 7 7
13 13 13 12 11 10 10 10 8 8 8 7 8 7 7 7 7 6 5 6 6 6
14 13 12 11 10 9 8 8 7 8 7 8 7 6 6 6 6 5 5 6 7 6
12 11 10 9 9 8 8 7 8 8 7 6 6 6 6 6 5 4 5 6 6 6
12 11 11 9 8 7 7 7 7 7 6 6 6 5 4 4 3 3 4 4 5 5
11 11 10 9 9 8 8 6 6 5 5 5 3 4 4 3 2 2 4 5 5 5
10 9 8 7 6 6 5 5 5 4 4 4 4 4 3 3 2 2 4 5 5 5
8 7 5 5 4 5 4 4 5 4 5 4 5 4 3 2 1 3 4 4 5 5
7 6 5 4 4 3 4 4 4 4 4 4 3 3 2 2 1 3 4 4 4 4
7 6 6 5 5 5 5 4 4 3 3 2 2 3 2 2 2 3 3 3 3 3
7 6 6 5 3 3 3 3 3 3 4 3 3 3 2 2 1 2 2 2 3 2
3 3 4 4 4 4 4 4 4 3 3 3 3 2 1 1 0 1 1 2 2 2

GFSNIL_925_temp_045.txt.gz
Temp
17 17 16 16 15 14 14 13 13 12 11 11 11 11 10 10 9 9 8 9 10 10
16 15 15 14 14 14 13 13 11 11 10 10 10 10 8 8 8 8 8 8 8 8
15 15 15 14 13 13 13 12 10 10 10 10 9 8 7 7 7 7 8 7 6 6
16 15 14 14 13 13 12 10 10 9 9 9 8 6 6 7 7 7 6 6 5 6
16 16 14 13 13 12 11 10 10 9 8 8 7 6 7 7 6 6 5 5 4 5
14 13 13 12 11 11 10 9 8 8 8 8 7 6 6 6 5 4 5 4 4 5
14 12 11 10 9 9 8 7 7 8 7 7 7 6 5 5 4 5 4 3 4 5
14 13 12 11 10 9 8 7 7 7 6 6 6 5 5 5 5 4 3 3 3 5
13 12 11 11 9 9 8 7 6 6 6 5 4 5 4 5 4 3 2 2 4 6
11 9 9 8 7 7 6 6 4 4 4 5 6 5 4 4 3 2 2 4 5 5
9 8 8 8 7 6 6 5 5 6 6 5 4 4 4 3 2 3 4 4 5 5
9 9 8 8 7 6 6 6 5 5 4 4 4 4 3 2 3 3 3 4 4 4
9 9 8 6 6 5 4 5 5 5 6 6 5 5 3 2 2 2 2 2 3 3
7 6 6 6 7 7 7 6 5 5 5 5 4 4 2 1 -0 -1 -1 -1 -0 0

GFSNIL_925_temp_048.txt.gz
Temp
20 20 19 19 18 17 17 15 14 14 14 13 13 12 12 12 11 10 9 9 9 10
19 18 18 16 17 17 17 14 14 14 13 12 12 11 11 11 10 8 8 8 9 8
19 16 16 16 15 15 14 13 13 13 12 12 11 10 10 10 8 7 8 8 7 7
16 16 15 15 15 14 13 12 13 12 11 10 10 10 9 8 7 7 6 6 6 6
19 17 15 15 15 14 13 13 12 11 9 9 9 9 8 7 7 6 6 7 6 5
17 17 15 14 13 12 12 11 10 10 9 9 8 7 7 6 6 6 6 6 4 5
15 14 13 12 12 11 11 10 10 9 8 8 7 7 5 5 6 6 5 5 4 4
13 12 11 11 10 9 9 8 7 7 7 7 7 6 6 6 5 5 4 4 4 3
13 12 11 10 9 8 8 7 7 7 7 6 6 6 5 5 5 4 5 4 3 3
12 10 10 9 8 8 7 6 6 5 6 5 5 5 5 4 4 4 3 3 3 3
10 9 8 8 7 6 6 5 5 5 5 5 5 5 4 4 3 3 3 3 4 4
9 9 8 7 7 6 6 6 6 6 6 5 5 5 4 3 2 3 2 2 2 2
10 9 8 7 7 6 6 5 5 5 5 5 5 3 3 2 1 1 0 0 0 0
8 7 7 6 6 6 6 6 5 5 5 5 3 2 1 1 -0 -1 -2 -3 -3 -3

GFSNIL_925_temp_051.txt.gz
Temp
18 19 19 18 18 19 18 18 17 15 15 15 14 14 14 13 13 12 11 10 9 8
20 18 19 18 18 18 18 17 17 16 15 14 14 13 13 12 11 11 11 10 8 7
19 18 17 18 18 17 16 16 15 15 14 14 13 13 12 11 10 10 9 8 7 7
18 18 18 18 16 16 15 15 14 14 13 13 12 12 11 10 10 8 7 6 7 7
18 18 16 15 16 15 15 14 14 13 12 12 11 10 10 9 8 7 6 6 6 7
17 18 16 15 15 15 14 14 13 12 11 11 10 9 9 8 7 6 5 5 7 6
15 16 15 14 14 13 13 12 11 11 10 9 9 8 8 7 6 5 5 6 6 5
15 14 13 12 12 11 11 10 10 9 9 8 8 7 7 6 6 5 5 5 5 4
13 12 11 11 10 9 9 8 8 8 8 7 7 6 6 6 5 5 5 4 4 4
11 10 10 10 8 8 7 7 7 7 6 6 6 6 5 5 5 4 4 4 4 3
11 10 9 8 8 7 7 6 6 6 6 5 5 5 5 4 4 4 3 3 2 1
9 8 8 7 7 6 6 5 5 5 5 5 5 5 4 3 3 2 2 2 2 1
8 8 7 6 6 6 6 5 5 5 5 4 4 3 3 2 2 1 1 0 -0 -1
8 7 7 7 6 6 6 5 5 4 4 4 3 2 1 1 0 -1 -2 -2 -3 -3

GFSNIL_925_temp_054.txt.gz
Temp
15 14 14 15 15 17 17 18 18 18 17 17 15 14 14 13 14 14 13 12 11 10
14 14 15 15 16 17 18 17 18 18 16 15 14 14 14 13 13 13 12 11 10 10
15 15 15 15 17 17 18 16 17 17 16 14 14 14 13 13 12 11 10 9 9 7
16 15 15 15 16 17 16 15 14 15 15 14 13 13 12 12 11 10 9 8 7 6
16 15 14 15 16 17 15 16 14 14 14 13 12 12 12 11 10 9 8 7 7 6
16 14 14 16 15 15 15 15 14 14 13 12 12 11 11 10 9 8 8 7 6 6
15 15 15 17 14 15 15 14 13 13 12 11 11 11 9 8 8 7 7 6 6 5
16 16 15 14 13 14 13 13 12 11 10 10 10 9 8 7 7 7 5 5 5 5
13 13 12 12 13 12 12 11 11 10 10 9 8 8 7 7 6 5 5 4 5 5
12 11 11 11 11 11 10 9 8 8 8 7 7 6 6 6 5 5 4 4 4 3
10 10 10 10 9 9 8 8 7 7 6 6 6 6 5 5 5 4 3 3 2 2
9 8 7 7 8 8 7 6 6 6 6 6 5 5 4 4 4 3 2 1 1 0
8 8 8 8 8 7 6 6 5 5 5 5 5 4 4 3 3 2 1 0 -0 -1
8 8 8 7 6 6 5 5 4 4 4 3 3 2 2 1 1 1 -0 -1 -2 -3

GFSNIL_925_temp_057.txt.gz
Temp
12 12 13 14 14 14 15 15 16 17 17 17 17 16 16 14 14 14 13 13 12 12
13 13 13 13 14 14 14 15 15 16 17 17 17 16 15 15 14 13 13 12 11 11
13 13 13 14 14 14 14 14 14 14 15 16 16 15 14 13 13 13 12 11 10 9
14 14 14 13 14 14 14 14 14 14 15 14 14 14 14 13 13 12 12 10 9 8
14 14 14 13 14 15 16 14 14 15 14 15 14 13 12 12 12 11 10 10 8 7
14 14 14 14 13 15 15 15 14 14 15 14 13 13 12 11 11 10 10 9 7 7
15 14 14 14 14 15 14 14 13 14 14 13 12 11 10 10 9 9 8 8 7 7
15 14 15 14 14 13 13 13 13 14 13 12 12 11 10 9 8 8 7 6 6 5
14 14 15 13 13 13 13 13 12 12 12 11 10 10 9 9 8 7 6 5 5 4
14 13 13 13 13 12 11 12 11 11 11 9 9 8 8 7 7 6 5 5 4 3
13 12 11 11 11 10 10 10 10 9 8 8 7 6 6 6 6 5 4 3 3 2
12 10 10 9 9 9 9 8 8 7 7 7 6 5 5 4 4 3 2 2 1 1
10 10 8 9 9 9 8 8 7 6 5 5 5 4 4 4 3 2 1 -0 -0 -0
9 9 9 8 7 6 6 5 4 4 3 3 3 3 3 3 3 2 -0 -1 -2 -2

GFSNIL_925_temp_060.txt.gz
Temp
12 13 13 14 15 15 16 16 17 17 16 16 16 17 16 15 15 14 14 13 13 13
12 12 12 13 14 14 15 16 16 16 16 16 15 15 14 15 14 13 13 13 13 11
12 12 12 13 13 13 14 14 15 15 16 15 15 15 14 13 13 13 13 12 12 11
12 12 12 12 13 13 13 14 14 15 15 14 14 13 13 12 12 12 12 11 11 11
12 12 13 13 13 12 13 13 14 14 15 15 14 14 13 13 12 12 12 11 10 9
13 13 12 12 12 12 13 13 14 13 12 14 14 13 13 12 12 12 12 11 10 9
13 13 13 13 13 13 13 13 15 12 12 13 14 13 12 12 11 11 10 10 8 8
13 14 13 13 13 13 13 13 14 13 12 12 13 12 12 11 10 10 9 8 7 7
14 14 14 13 13 13 13 13 13 13 12 12 12 12 12 11 10 9 8 7 5 5
14 14 14 13 13 13 13 12 12 12 11 11 11 11 11 10 9 7 6 6 5 4
14 14 13 13 13 12 12 11 11 11 11 10 11 10 8 7 7 6 5 5 4 3
13 13 13 11 12 11 10 10 9 9 8 8 7 7 6 6 5 4 3 3 2 2
12 12 11 11 10 10 8 7 7 6 6 6 5 5 5 4 3 2 1 -0 -1 -1
11 11 10 9 8 7 6 5 4 4 3 4 4 3 3 4 3 2 0 -1 -2 -2

GFSNIL_925_temp_063.txt.gz
Temp
12 12 13 14 14 15 14 15 15 16 16 16 16 16 15 15 15 13 15 14 13 12
12 12 13 13 13 14 15 16 16 16 16 16 16 16 15 15 15 13 13 13 12 11
11 12 12 12 12 13 13 14 14 15 15 15 15 15 15 14 13 12 13 12 12 11
11 11 12 12 12 13 13 13 13 14 14 15 16 15 14 14 12 12 11 12 12 11
11 11 11 11 12 12 12 12 13 13 13 14 15 15 14 12 12 12 12 12 11 11
11 11 11 12 12 12 12 12 12 13 13 13 14 14 14 13 12 11 12 12 11 11
12 12 12 12 12 12 12 12 12 13 13 13 13 13 13 12 12 11 11 11 11 9
13 12 12 12 12 12 12 13 13 13 13 12 12 12 11 12 12 11 11 10 9 9
13 13 13 13 13 12 12 13 12 12 12 12 11 12 12 12 11 11 10 9 8 7
14 13 13 13 13 13 12 12 12 12 12 12 12 12 11 11 10 10 9 7 6 5
14 14 14 13 13 13 12 12 12 12 12 12 12 12 11 9 8 8 6 6 5 5
14 14 14 13 13 12 12 12 12 11 11 10 10 9 8 7 6 5 4 4 4 4
13 13 12 12 12 12 11 10 9 8 8 8 8 6 5 5 4 3 1 0 0 1
12 12 12 11 10 9 8 7 5 5 4 4 4 4 4 5 3 2 -1 -1 -2 -2

GFSNIL_925_temp_066.txt.gz
Temp
13 13 14 14 14 14 14 14 15 15 16 17 17 16 16 15 16 15 15 15 15 14
14 14 15 15 14 14 14 15 15 15 16 17 16 16 16 15 16 15 15 14 14 12
15 15 15 15 16 16 16 16 16 16 15 16 16 16 16 16 16 16 15 14 13 13
15 15 15 15 15 16 16 16 15 15 16 16 16 16 16 15 16 15 14 12 12 12
15 15 15 15 15 15 15 15 15 15 16 16 16 16 16 15 15 14 12 12 11 12
15 15 15 15 15 15 15 15 15 15 15 15 16 16 15 14 13 14 14 12 11 11
15 15 15 15 15 15 15 15 14 15 15 15 15 15 15 14 12 13 14 14 12 12
16 16 15 15 15 15 14 14 14 15 15 15 15 15 15 15 13 12 11 11 11 11
17 16 16 15 15 15 15 15 15 15 15 15 14 14 14 14 14 11 11 10 10 10
17 17 16 16 16 15 15 15 14 15 15 15 15 14 13 13 12 11 11 10 9 8
18 17 17 16 16 16 16 15 14 14 14 14 14 13 12 13 12 10 10 9 8 7
18 17 17 17 16 16 16 15 14 13 13 12 12 12 12 11 9 8 7 6 5 5
18 18 17 17 16 15 14 13 12 12 11 11 11 10 9 8 7 4 2 1 1 2
17 17 17 15 11 11 11 10 8 7 6 6 6 5 5 5 4 2 -1 -1 -1 -1

GFSNIL_925_temp_069.txt.gz
Temp
14 14 15 15 16 14 14 14 15 15 15 15 15 15 16 16 16 17 16 16 15 16
14 15 15 15 15 15 15 15 14 15 15 15 15 15 16 17 17 16 16 15 15 15
14 14 15 15 15 15 15 15 15 15 15 15 15 15 16 17 17 16 16 15 15 15
15 15 15 16 16 16 16 15 15 15 15 15 15 16 16 16 17 16 16 16 16 15
16 16 16 16 17 17 17 16 16 16 16 16 16 16 17 17 17 17 17 17 16 15
18 17 17 17 17 17 17 17 17 17 17 17 17 17 17 17 17 17 17 17 16 14
18 17 17 17 17 17 17 17 17 17 17 17 17 17 17 17 17 17 16 16 16 14
19 18 17 17 17 17 16 16 16 17 17 17 17 17 17 17 17 17 16 15 13 12
19 18 18 18 17 17 16 16 16 16 17 16 16 16 16 16 16 16 16 15 13 13
20 19 19 18 17 17 17 16 16 16 16 16 16 16 16 16 15 15 15 15 13 12
20 20 19 18 18 18 17 17 16 16 16 16 16 16 16 15 15 14 14 13 12 11
21 20 20 19 19 18 18 17 17 16 16 16 16 16 16 15 14 12 11 10 9 8
22 21 20 20 19 18 18 17 17 15 14 14 13 14 14 12 11 8 6 5 4 3
22 21 21 20 19 18 15 12 11 10 8 9 9 8 8 8 8 5 1 -1 -1 -2

GFSNIL_925_temp_072.txt.gz
Temp
14 14 15 14 14 14 14 14 14 14 14 14 16 16 16 15 15 16 16 16 16 15
14 15 15 14 14 15 15 14 14 14 14 15 16 16 16 15 15 15 16 15 16 16
14 14 14 14 15 15 15 14 14 14 14 15 15 16 16 16 15 15 15 15 16 16
13 14 14 15 15 15 15 15 15 14 14 14 15 15 15 15 15 15 16 16 16 15
14 14 14 15 15 15 15 15 15 15 14 14 15 15 15 15 15 15 15 16 16 15
15 14 15 15 15 15 15 15 15 15 15 15 15 15 15 15 15 15 16 16 16 16
17 15 15 15 15 16 16 16 16 15 15 16 15 16 15 15 15 16 16 16 16 16
18 18 17 16 16 16 16 17 17 17 16 16 16 16 16 16 16 16 16 16 16 16
20 19 18 17 17 17 17 16 17 17 17 17 17 17 17 17 17 17 16 16 16 16
20 20 19 18 17 17 17 17 16 16 16 16 16 17 17 17 17 16 16 16 16 16
20 20 20 19 18 18 17 17 16 16 16 16 16 16 16 16 16 16 15 15 15 15
21 20 20 20 19 18 17 17 16 16 16 16 16 16 16 16 16 15 14 14 14 13
21 21 21 20 19 19 18 17 17 17 15 14 15 15 15 16 15 12 10 8 7 6
8 11 15 20 20 19 18 17 13 12 9 9 9 9 10 11 11 9 5 2 1 0

GFSNIL_925_temp_075.txt.gz
Temp
13 13 13 13 13 14 14 14 15 15 15 15 15 16 16 17 16 16 16 16 14 15
14 13 13 13 13 14 14 14 14 15 15 15 15 15 16 16 16 15 16 15 15 16
14 14 14 14 13 14 14 14 13 14 14 15 15 15 15 16 16 16 15 15 15 15
14 14 14 14 13 13 14 14 14 14 14 14 14 15 15 14 15 15 15 15 14 15
14 14 14 14 14 14 14 14 14 14 14 14 13 14 14 14 14 14 14 14 14 15
13 14 14 14 14 14 14 14 14 14 14 13 14 14 14 14 14 14 14 14 14 14
13 13 14 14 14 14 14 14 14 14 13 13 13 13 13 14 14 14 14 14 14 14
14 14 13 13 13 14 14 14 14 14 14 14 14 13 13 14 14 14 14 14 14 14
16 14 14 14 14 14 14 14 14 14 14 14 14 14 14 14 14 14 14 14 14 14
19 17 16 15 15 14 14 14 14 15 15 15 14 14 15 15 15 14 14 14 14 14
17 18 17 17 16 15 15 15 15 15 15 15 15 15 15 15 16 15 15 15 15 15
10 12 17 17 17 17 16 16 15 15 15 15 15 15 15 15 16 15 15 14 14 14
6 5 8 10 12 16 16 16 15 15 15 15 15 15 15 15 15 14 13 12 11 10
5 5 3 5 8 8 10 14 14 13 10 9 8 9 10 12 13 13 9 6 4 3

GFSNIL_925_temp_078.txt.gz
Temp
13 12 12 12 12 12 13 13 14 15 15 16 15 15 14 16 17 17 17 17 17 16
13 12 12 13 13 13 13 13 14 15 15 16 16 16 16 16 16 16 16 17 16 16
13 13 12 13 13 13 13 13 14 14 15 15 16 16 16 16 16 16 16 16 16 15
13 13 13 13 13 13 13 13 14 14 14 14 15 15 15 15 15 15 15 16 16 16
13 13 13 13 13 13 13 13 14 14 14 13 14 14 15 14 14 14 13 14 14 15
14 13 13 13 13 13 13 13 13 13 13 13 13 13 14 14 14 14 14 13 13 13
13 13 14 14 14 13 13 13 13 13 13 13 13 13 13 13 13 13 13 13 13 13
13 13 13 14 14 14 13 13 13 13 13 13 12 13 13 12 12 12 12 13 13 13
13 12 12 13 13 14 13 13 13 13 13 13 12 13 13 13 12 12 12 12 12 13
14 13 13 13 13 13 13 13 13 13 13 13 13 13 13 13 13 12 12 12 12 12
10 10 12 13 13 12 13 12 12 13 13 13 13 13 13 13 13 13 13 13 13 13
6 7 8 9 10 12 13 13 13 13 13 13 13 13 14 14 13 12 13 13 13 13
3 4 4 5 6 8 9 10 13 12 10 9 10 9 11 12 11 11 11 11 12 11
-1 0 0 2 3 5 5 6 5 4 2 3 2 2 4 6 8 7 9 6 3 3

GFSNIL_925_temp_081.txt.gz
Temp
12 12 12 12 12 12 12 12 12 13 14 15 15 16 16 16 15 15 15 15 16 16
12 12 12 12 13 12 12 12 13 13 14 14 15 15 16 16 14 14 15 16 15 16
12 12 12 12 12 12 13 13 13 13 14 14 14 15 15 15 14 14 13 14 16 16
13 12 13 13 12 12 12 13 13 13 14 14 14 14 14 13 13 13 13 15 16 16
13 13 13 13 13 13 13 13 13 14 14 14 14 14 14 14 14 14 14 14 14 15
13 14 13 13 13 13 13 13 13 13 13 13 14 14 14 15 14 14 14 14 14 14
13 13 14 13 13 14 14 13 13 13 13 13 13 13 13 13 14 13 13 14 14 14
13 13 13 13 13 13 14 14 14 14 13 13 13 13 12 12 12 12 12 13 13 13
12 12 12 13 13 13 13 13 13 13 13 13 13 12 12 12 12 12 12 12 12 12
12 12 12 12 12 12 12 13 13 13 13 13 13 13 13 13 12 12 12 12 11 11
7 8 9 11 12 12 12 12 12 12 12 12 12 12 12 13 12 12 12 12 12 11
4 4 5 5 7 8 9 11 12 12 12 12 10 10 11 12 12 11 11 12 12 11
1 1 1 2 2 4 5 6 7 6 5 4 4 4 5 7 8 8 10 11 8 7
-2 -1 -1 0 1 1 1 1 1 1 -0 0 0 0 3 5 7 6 4 1 -1 -2

GFSNIL_925_temp_084.txt.gz
Temp
13 13 13 12 12 12 12 12 12 12 13 12 12 13 14 15 16 16 16 16 15 15
12 12 12 13 12 12 12 13 12 12 12 12 12 12 13 15 16 15 15 15 15 15
12 11 12 12 12 13 13 13 12 12 12 12 12 13 13 13 15 15 15 14 13 14
12 12 12 12 12 13 13 13 13 12 12 12 13 13 13 14 14 14 15 14 14 13
12 12 12 12 12 13 13 12 12 13 12 13 13 13 14 14 14 14 13 15 12 12
13 12 12 13 13 12 12 12 12 12 13 13 13 14 14 14 14 14 14 14 13 13
14 14 14 14 13 13 13 12 12 12 13 13 13 13 13 13 13 13 13 13 13 13
13 13 14 14 14 14 13 14 13 13 12 13 13 13 13 13 13 13 13 13 13 13
12 12 12 13 13 13 13 14 14 14 14 14 13 13 12 12 12 12 12 12 12 12
11 11 12 12 12 12 12 13 13 13 13 13 13 12 13 14 13 12 12 12 12 11
6 6 8 9 10 11 11 11 12 12 12 12 11 11 11 12 12 11 12 12 11 11
2 3 4 4 5 6 7 7 8 7 9 8 6 5 8 9 10 10 10 10 10 9
0 0 0 1 1 2 3 2 2 1 1 1 1 4 5 6 7 7 7 5 3 2
-2 -1 -1 -0 0 0 -0 -0 -1 -1 -2 -2 -2 -1 1 3 3 2 0 -2 -3 -3

GFSNIL_925_temp_090.txt.gz
Temp
16 15 15 13 12 11 11 11 11 11 12 11 12 12 13 13 13 14 14 15 16 16
15 15 13 13 12 12 12 11 11 11 11 11 12 12 12 12 13 13 14 14 15 15
14 14 14 13 13 12 12 11 11 12 11 11 12 13 13 13 12 13 13 13 14 16
14 13 13 13 12 12 12 12 12 12 12 11 12 12 12 11 11 12 12 13 13 14
13 13 13 13 12 12 12 12 12 13 11 11 11 12 11 11 11 12 12 14 12 13
13 13 13 13 13 13 13 12 12 12 12 12 11 11 12 11 11 12 12 13 12 13
14 13 13 13 13 13 14 14 13 13 12 12 12 12 11 11 11 11 12 12 12 12
13 13 13 13 12 12 12 13 14 14 14 13 13 12 12 12 12 11 12 13 13 13
15 15 15 14 14 13 12 12 12 13 14 14 14 13 13 14 13 13 13 13 13 12
10 11 11 13 13 13 14 13 13 12 13 11 10 11 12 12 12 12 12 12 12 13
5 6 7 8 8 9 10 10 9 9 8 7 6 7 10 11 11 10 9 9 9 9
2 2 3 3 3 3 3 2 2 2 3 3 3 6 7 8 8 7 5 4 4 4
-0 0 0 -0 -0 -0 -0 -1 -1 -1 -1 -1 -0 2 5 5 5 2 -0 -1 -0 -0
-1 -1 -1 -1 -1 -2 -2 -2 -2 -3 -3 -3 -3 -2 1 1 1 -1 -3 -4 -4 -4

GFSNIL_925_temp_093.txt.gz
Temp
19 18 18 16 14 13 13 13 13 13 13 13 13 13 14 14 14 15 16 16 16 17
18 17 17 15 13 13 12 12 12 13 13 13 13 13 13 14 14 15 15 15 16 16
16 16 15 13 12 12 12 11 11 12 12 12 13 13 13 13 14 14 14 14 15 15
16 16 15 14 13 12 12 11 11 11 11 12 12 12 12 13 13 13 12 14 14 14
16 15 15 14 13 12 11 11 11 11 12 11 11 12 12 12 12 13 13 12 12 13
15 15 14 13 12 12 12 11 11 11 11 10 11 11 11 12 12 11 11 11 13 14
16 16 15 15 14 13 12 12 12 12 12 11 11 11 11 12 11 11 10 12 13 15
16 15 15 15 15 15 14 13 12 12 12 12 12 12 12 12 11 11 11 12 13 13
15 14 14 14 14 13 14 14 14 14 14 13 11 12 12 12 11 11 12 11 12 13
10 11 11 12 13 12 12 13 13 12 10 10 9 11 12 12 12 12 12 12 12 12
6 7 7 7 7 8 9 8 8 7 7 7 8 11 12 12 11 10 10 9 9 9
2 2 3 2 2 2 4 4 2 2 2 3 4 6 8 10 9 7 5 4 4 5
0 -0 -0 -0 -1 -1 -0 -1 -1 -1 -1 -1 0 2 4 5 4 2 0 -0 -0 -0
-1 -1 -1 -1 -1 -2 -2 -2 -2 -3 -3 -3 -3 -2 -0 1 1 -0 -2 -3 -3 -3

GFSNIL_925_temp_096.txt.gz
Temp
20 20 20 18 17 15 14 14 14 14 14 14 13 13 13 13 13 13 14 15 16 18
20 19 18 17 16 14 13 13 13 14 13 13 13 13 13 13 13 13 14 15 16 18
18 18 17 15 14 13 12 13 13 13 13 13 13 13 13 13 13 13 14 15 15 17
17 17 15 14 13 12 12 12 12 12 13 13 13 13 13 13 13 13 13 15 16 16
16 15 15 14 12 12 12 12 11 12 12 12 13 13 13 13 13 13 14 14 15 15
15 15 15 13 13 12 12 11 11 11 12 12 12 12 12 13 13 13 13 13 14 14
15 15 15 14 13 12 12 11 11 11 12 12 12 12 12 12 13 13 13 13 12 12
15 15 15 14 13 13 12 12 11 11 11 12 11 11 11 11 11 11 11 11 11 11
15 15 15 15 14 13 13 12 12 12 12 11 10 10 11 11 11 11 11 11 11 11
11 12 12 13 13 13 11 11 10 9 10 8 8 9 11 11 11 11 11 11 11 11
6 7 7 9 8 8 8 7 7 6 5 6 6 8 10 11 11 9 8 8 8 8
2 3 3 3 3 3 3 2 1 1 2 2 3 6 7 9 8 6 3 3 3 4
-1 -1 -1 -1 -1 -1 -0 -1 -1 -2 -1 -1 -0 1 4 4 3 1 -0 -0 0 1
-1 -1 -2 -2 -2 -2 -2 -2 -3 -3 -3 -3 -2 -2 -0 0 -0 -2 -3 -3 -3 -3

GFSNIL_925_temp_099.txt.gz
Temp
19 18 17 17 16 16 14 14 14 14 15 14 14 14 14 14 14 13 13 13 13 14
19 18 18 17 17 16 15 15 15 14 14 14 14 14 13 13 13 13 13 13 13 14
19 18 18 17 16 15 15 14 14 13 13 13 13 13 13 13 13 13 13 13 13 14
17 17 17 16 16 15 13 13 13 13 13 13 13 13 13 13 13 13 13 13 13 13
16 16 16 16 15 13 12 12 12 11 12 12 13 13 13 13 13 13 13 13 13 13
16 15 15 14 14 12 12 12 12 11 12 12 13 13 13 13 13 13 13 13 13 13
15 15 14 14 14 12 12 12 11 11 11 12 12 13 13 13 13 13 12 13 13 13
15 15 14 14 13 12 12 11 11 11 11 11 11 11 12 12 12 12 12 13 13 12
14 14 14 14 13 12 12 11 11 11 11 11 11 11 11 12 12 12 12 12 12 12
11 11 11 11 11 10 9 10 10 9 10 9 9 10 10 11 11 12 11 11 11 10
5 5 6 7 7 6 6 5 5 5 5 6 7 8 10 10 10 9 8 8 9 9
-0 1 2 1 0 0 1 1 1 1 2 3 3 5 7 9 7 5 3 3 5 5
-1 -1 -1 -1 -2 -2 -2 -3 -2 -2 -2 -1 0 2 3 5 3 1 -0 0 1 3
-3 -2 -2 -2 -2 -2 -3 -3 -4 -4 -3 -3 -2 -1 0 0 -1 -2 -3 -3 -3 -1

GFSNIL_925_temp_102.txt.gz
Temp
17 16 16 16 17 17 15 15 16 15 15 15 14 14 14 14 14 13 13 13 13 14
17 17 16 17 17 16 16 15 14 14 14 14 14 14 14 14 14 13 13 13 13 13
17 17 17 17 16 16 15 15 14 14 14 14 14 14 14 13 14 13 13 13 13 13
17 17 17 16 16 16 15 15 14 14 13 13 13 14 14 14 13 13 13 13 13 13
16 16 16 15 15 15 14 13 13 13 13 13 13 13 13 13 13 13 13 13 13 13
15 15 14 14 14 15 13 13 12 12 12 12 12 12 12 13 13 13 13 13 13 13
14 15 15 15 15 14 13 12 12 12 12 11 12 12 13 13 13 13 13 13 13 13
14 14 14 14 14 14 12 12 11 11 11 11 11 11 12 13 13 13 13 13 13 12
9 13 13 13 12 12 12 11 11 11 11 11 11 11 11 12 12 12 12 12 12 12
3 5 8 10 10 9 9 9 9 9 8 9 9 11 11 11 11 10 11 11 11 11
0 0 2 3 4 5 5 4 3 4 4 5 6 8 9 10 10 10 9 10 10 11
-1 -1 -1 -1 -1 0 1 0 -0 -0 1 2 2 3 5 9 8 7 6 6 7 8
-2 -2 -2 -2 -3 -3 -2 -2 -2 -2 -2 -1 -1 1 2 3 2 2 1 2 2 3
-4 -3 -3 -3 -3 -3 -3 -3 -3 -4 -3 -3 -3 -1 1 1 0 -2 -2 -2 -2 -1

GFSNIL_925_temp_105.txt.gz
Temp
17 17 16 16 16 15 15 15 15 17 17 15 15 15 15 14 14 14 14 14 13 13
16 16 17 16 15 15 15 15 16 16 15 15 15 15 14 14 14 14 14 13 13 13
16 16 16 16 16 16 16 16 16 15 15 14 14 14 14 14 14 13 13 13 13 13
15 16 16 16 15 15 16 15 15 15 14 14 13 14 14 14 13 13 13 13 13 13
15 16 15 15 15 15 15 14 14 14 14 13 13 13 13 13 13 13 13 13 13 13
14 14 14 14 14 14 14 14 13 13 13 12 12 12 12 12 13 13 13 13 13 13
12 14 14 14 14 14 13 13 12 12 12 12 12 11 11 11 12 12 13 13 13 13
6 13 13 12 12 12 13 12 12 12 11 11 11 11 11 11 12 13 13 13 13 13
2 5 8 11 12 12 12 11 11 11 11 10 10 10 11 11 11 12 13 13 13 13
0 0 1 3 6 6 8 9 9 8 8 8 8 9 10 10 11 11 11 11 12 12
-1 -1 -1 -1 -1 0 1 2 3 4 4 4 5 6 8 9 10 9 9 8 8 10
-2 -2 -1 -2 -3 -2 -2 -2 -1 -1 1 2 2 3 5 7 7 6 5 5 6 6
-4 -4 -3 -2 -2 -3 -3 -3 -3 -3 -2 -2 -1 -0 2 3 3 2 1 1 2 3
-5 -5 -5 -4 -4 -3 -3 -3 -3 -4 -4 -3 -3 -2 -1 0 -0 -1 -2 -2 -2 -2

GFSNIL_925_temp_108.txt.gz
Temp
17 17 16 16 16 16 15 16 15 16 16 16 16 16 15 15 15 14 14 14 14 14
17 16 16 16 16 16 15 16 15 15 15 15 16 16 15 15 15 14 14 14 14 14
16 16 16 16 16 15 15 16 15 15 15 15 15 15 15 15 14 14 14 14 14 13
16 16 15 15 15 15 15 15 15 15 15 15 14 14 14 14 14 14 14 14 13 13
15 15 15 15 15 15 14 15 15 14 14 14 14 14 13 13 14 14 13 13 13 13
10 14 14 14 14 14 14 14 14 14 14 13 13 13 13 13 13 13 13 13 13 13
6 10 13 13 13 13 13 14 13 13 13 13 12 12 12 11 11 11 12 12 12 13
2 4 11 11 12 12 12 12 12 12 11 11 11 11 11 11 11 11 11 12 12 12
1 0 2 5 6 9 8 9 9 10 10 10 9 8 9 10 11 10 11 11 12 13
0 -0 -1 -1 0 2 2 3 3 2 4 4 5 5 9 10 9 10 9 9 10 12
-2 -1 -2 -2 -2 -2 -2 -2 -1 -1 -0 -0 1 3 5 7 8 7 7 7 7 8
-4 -4 -3 -3 -3 -2 -2 -3 -3 -3 -3 -2 -2 -1 1 3 4 4 3 3 3 5
-4 -4 -4 -4 -3 -3 -3 -3 -3 -4 -4 -4 -4 -3 -1 0 0 0 -1 -0 -0 0
-5 -5 -4 -4 -4 -4 -4 -3 -4 -4 -4 -4 -4 -5 -4 -3 -2 -3 -3 -4 -4 -3

GFSNIL_925_temp_111.txt.gz
Temp
17 18 18 18 18 17 16 16 15 15 15 16 15 15 15 15 15 15 15 14 14 14
17 17 17 17 17 17 16 16 16 16 16 15 15 15 16 15 15 15 14 14 14 14
17 17 16 16 16 16 16 16 16 15 15 15 15 15 15 15 15 15 14 14 14 14
15 16 16 16 16 16 15 15 15 15 15 15 15 15 15 15 15 15 14 14 14 14
11 15 15 15 15 15 15 14 14 14 15 15 14 14 15 14 14 14 14 14 14 13
6 11 14 14 14 14 14 14 14 14 14 14 14 14 14 13 13 13 13 13 13 13
2 4 8 12 12 13 13 13 13 13 13 13 12 12 12 12 12 12 12 12 12 12
1 1 3 6 7 10 10 10 11 10 10 10 10 9 10 11 11 11 11 11 11 11
-0 0 -0 0 1 4 4 5 6 5 5 4 3 5 8 9 10 10 9 9 8 8
-2 -1 0 -1 -1 -1 -1 0 1 1 1 -0 -1 1 5 7 7 6 6 6 6 7
-3 -3 -1 -1 -2 -1 -2 -1 -3 -3 -2 -3 -3 -1 1 3 3 3 2 2 2 3
-4 -4 -3 -3 -3 -3 -3 -3 -4 -4 -3 -3 -4 -3 -1 0 0 0 -1 -1 -1 1
-5 -4 -4 -4 -3 -3 -3 -4 -4 -4 -4 -4 -4 -3 -2 -2 -3 -3 -3 -3 -3 -3
-6 -5 -5 -4 -4 -4 -4 -4 -4 -4 -4 -5 -5 -5 -3 -2 -4 -5 -5 -6 -5 -5

GFSNIL_925_temp_117.txt.gz
Temp
5 7 10 14 17 19 22 21 20 18 17 17 18 17 16 16 16 16 16 16 16 18
3 6 8 13 16 19 20 22 20 18 16 16 16 17 16 16 16 16 16 16 16 17
3 6 7 11 16 19 20 21 19 17 16 16 16 16 16 16 16 15 15 16 16 16
5 5 8 12 16 19 20 20 19 17 16 16 16 16 16 16 15 15 15 15 15 16
3 5 8 12 17 19 18 19 19 18 17 16 16 16 15 15 15 15 15 15 15 15
2 3 3 4 6 12 16 16 15 15 15 15 15 15 15 15 15 15 15 15 15 15
0 0 1 1 2 3 4 6 6 8 8 9 11 12 14 15 14 14 15 14 14 14
-1 -1 -1 -1 -1 -0 0 1 1 2 4 4 5 6 9 11 12 12 12 11 11 10
-2 -2 -2 -2 -2 -2 -2 -2 -1 -1 -1 0 1 4 7 7 8 8 8 7 8 8
-3 -2 -3 -3 -3 -3 -3 -3 -3 -3 -3 -3 -2 -0 2 4 2 0 0 1 2 2
-3 -3 -3 -3 -3 -3 -3 -4 -4 -4 -4 -4 -4 -2 -1 -0 -0 0 -2 -2 -2 -2
-3 -3 -3 -3 -3 -3 -3 -3 -4 -4 -4 -4 -4 -3 -3 -1 -3 -3 -4 -4 -4 -3
-4 -4 -4 -4 -3 -3 -3 -3 -3 -4 -4 -4 -4 -4 -5 -3 -4 -5 -5 -5 -5 -5
-5 -5 -5 -5 -4 -4 -3 -3 -3 -3 -4 -5 -5 -4 -5 -5 -4 -5 -5 -6 -6 -6

GFSNIL_925_temp_123.txt.gz
Temp
-1 0 1 2 3 4 5 6 7 9 12 15 17 19 19 19 19 17 14 17 18 18
-1 -0 1 1 2 3 4 5 6 7 10 13 15 18 19 18 19 18 17 18 16 17
-0 1 2 2 3 4 4 5 6 6 7 11 13 16 18 18 19 18 17 17 19 17
-0 0 1 2 3 4 5 6 7 7 8 10 13 16 17 18 17 16 16 16 16 16
-1 -1 0 -0 1 2 3 6 7 8 9 11 12 14 16 18 16 16 15 16 16 16
-2 -2 -2 -1 -1 -1 0 1 2 3 4 5 6 9 11 13 16 15 15 15 15 15
-2 -2 -2 -2 -2 -2 -2 -1 -1 -1 -0 1 2 4 7 12 14 15 15 13 14 14
-3 -3 -3 -3 -3 -3 -3 -2 -2 -2 -2 -1 -0 -0 1 3 3 5 5 3 5 5
-4 -3 -3 -3 -3 -4 -4 -4 -3 -3 -3 -3 -2 -1 -0 -0 -1 -1 -0 0 0 1
-5 -5 -4 -3 -3 -4 -4 -5 -5 -4 -3 -3 -3 -3 -1 -2 -1 -2 -3 -2 -2 -1
-7 -6 -5 -5 -5 -4 -5 -5 -5 -5 -5 -4 -4 -4 -3 -3 -3 -4 -4 -4 -4 -3
-7 -7 -7 -7 -6 -6 -5 -6 -7 -7 -6 -6 -5 -4 -4 -4 -4 -4 -4 -4 -4 -4
-7 -8 -8 -8 -7 -7 -7 -8 -8 -8 -8 -7 -7 -5 -5 -4 -4 -4 -4 -4 -4 -4
-7 -8 -8 -8 -8 -8 -8 -8 -8 -9 -9 -8 -7 -7 -6 -5 -5 -5 -5 -5 -5 -4

GFSNIL_925_temp_126.txt.gz
Temp
-1 -1 -1 -0 1 1 2 3 3 4 5 6 8 10 12 13 16 17 17 16 15 15
-1 -0 0 1 1 1 2 3 4 4 5 5 6 8 10 12 14 17 17 16 16 16
-1 -1 -0 1 1 2 3 4 4 4 5 6 6 7 9 12 14 16 16 15 16 14
-2 -2 -1 -1 -0 0 1 2 4 6 6 6 7 7 8 11 13 15 16 14 15 14
-2 -2 -2 -2 -1 -1 -1 -0 0 3 4 5 6 7 9 11 13 14 16 16 14 15
-3 -3 -3 -3 -3 -2 -2 -2 -1 -1 -0 0 2 4 7 9 11 12 12 14 15 16
-4 -3 -3 -3 -4 -4 -3 -3 -2 -2 -2 -1 -1 0 3 5 5 6 6 6 7 8
-5 -4 -3 -4 -5 -5 -5 -4 -3 -3 -3 -2 -2 -2 -1 -0 0 0 1 1 2 1
-6 -6 -5 -5 -5 -6 -6 -5 -5 -4 -3 -3 -3 -3 -3 -2 -2 -1 -2 -2 -1 0
-7 -7 -7 -7 -6 -7 -7 -7 -6 -6 -5 -4 -3 -4 -3 -3 -3 -3 -3 -3 -2 -2
-8 -8 -8 -7 -8 -8 -8 -8 -8 -7 -6 -5 -4 -4 -4 -4 -4 -4 -4 -4 -4 -3
-8 -8 -8 -9 -8 -8 -8 -9 -9 -8 -7 -7 -5 -5 -4 -4 -4 -4 -4 -5 -4 -4
-8 -9 -9 -9 -9 -9 -9 -9 -9 -9 -8 -7 -7 -5 -5 -5 -5 -5 -5 -5 -5 -5
-8 -9 -9 -9 -9 -9 -9 -9 -9 -9 -9 -8 -7 -6 -6 -6 -7 -6 -6 -7 -7 -6

GFSNIL_925_temp_129.txt.gz
Temp
-2 -1 -1 0 1 1 1 2 2 2 3 3 3 5 6 9 10 11 14 15 16 16
-2 -2 -1 -1 0 1 2 2 3 3 4 4 4 5 6 7 8 10 13 14 15 16
-3 -2 -2 -1 -1 -0 0 1 1 3 3 5 5 5 6 6 7 9 11 13 14 15
-4 -3 -3 -2 -2 -2 -1 -1 -0 1 2 5 6 6 7 7 7 9 11 13 14 14
-5 -3 -4 -3 -3 -3 -2 -2 -2 -1 -1 -0 1 4 6 8 9 10 12 13 13 13
-5 -4 -4 -5 -4 -4 -4 -3 -3 -2 -2 -2 -1 1 3 5 8 8 8 9 10 10
-6 -6 -5 -5 -6 -5 -5 -5 -3 -3 -3 -2 -2 -1 -1 0 1 1 2 3 3 4
-7 -7 -7 -6 -7 -7 -6 -6 -5 -4 -3 -3 -3 -3 -2 -2 -1 -1 -1 -0 0 1
-8 -8 -8 -8 -8 -8 -7 -7 -6 -5 -4 -4 -4 -4 -4 -4 -3 -3 -3 -2 -2 -1
-8 -9 -9 -9 -9 -8 -8 -8 -7 -6 -5 -5 -4 -4 -4 -4 -4 -4 -4 -4 -4 -3
-9 -9 -9 -9 -9 -9 -9 -9 -8 -7 -7 -6 -5 -5 -5 -5 -5 -5 -5 -5 -5 -5
-9 -9 -9 -9 -9 -9 -9 -9 -9 -8 -7 -7 -6 -6 -6 -6 -6 -6 -7 -6 -6 -6
-9 -9 -9 -9 -9 -9 -9 -9 -9 -9 -8 -8 -8 -7 -7 -7 -7 -7 -7 -8 -7 -7
-9 -9 -10 -10 -10 -9 -9 -9 -9 -10 -9 -9 -9 -8 -8 -8 -9 -9 -9 -9 -9 -8